User: anonymous   Login
Location: Unspecified
(50.1700°N, 6.8600°E)
Time: 01:32:06
(UTC+00:00)
Language:

Cosmos 1726 - Orbit

View from above orbital plane
View from above orbital plane
View from above satellite
View from above satellite

Ground track
Ground track

The orbit data is extracted from the following two-line orbital elements,

1 16495U 86006A   19289.12188994  .00000697  00000-0  26743-4 0  9994
2 16495  82.4700 296.8932 0014505  90.3442 269.9458 15.24621490845918
Epoch (UTC): 16 October 2019 02:55:31
Eccentricity: 0.0014505
inclination: 82.4700°
perigee height: 482 km
apogee height: 502 km
right ascension of ascending node: 296.8932°
argument of perigee: 90.3442°
revolutions per day: 15.24621490
mean anomaly at epoch: 269.9458°
orbit number at epoch: 84591

The dashed part of the orbit path shows where the satellite is in the earth's shadow,  

DLR